Wind_Speed
26 28 30 32 33 34 36 37 37 38 38 39 39 39 39 39 40 40 40 39 39 39 39 38 37 37 36 36 36 36 36 36 36 37 37 38 38 39 39 40 40 40 41 41 41 41 42 43 44 45 45 46 47 47 48 48 49 49 50 50 51 51 51 51 51 51 51 50 50
23 25 27 30 32 33 34 35 36 37 37 38 38 38 39 39 39 39 39 39 39 38 38 37 36 36 36 35 35 35 35 35 35 36 37 38 38 39 39 40 40 40 40 40 40 41 41 42 43 44 45 46 46 47 48 48 48 49 50 50 50 50 50 51 51 51 51 50 50
19 21 24 26 29 30 32 33 33 34 35 35 36 36 37 38 38 39 39 38 37 37 37 36 35 35 34 34 34 34 34 34 35 36 37 38 38 39 39 40 40 40 40 40 40 40 40 41 42 43 45 45 46 47 48 47 47 48 49 50 50 50 50 51 51 50 50 50 50
16 18 19 21 23 25 27 28 29 30 31 31 32 33 34 35 35 36 36 35 35 35 35 34 33 33 33 33 33 33 33 33 34 35 37 37 38 38 39 39 39 39 39 39 39 39 40 40 41 43 44 45 46 47 47 47 47 48 49 49 49 49 50 50 50 50 50 50 50
14 14 15 16 17 19 20 22 23 25 25 26 28 29 30 31 31 32 32 32 32 32 31 31 31 31 32 32 32 32 33 33 34 35 36 37 37 38 38 38 39 39 39 39 39 39 39 40 41 42 43 44 45 46 46 46 47 48 48 48 49 49 50 50 50 50 50 50 50
13 13 13 13 14 15 16 17 18 19 21 22 23 25 26 26 27 27 28 28 28 29 29 29 30 31 31 32 32 33 33 34 35 35 36 37 37 37 38 38 38 38 38 38 38 38 38 39 40 42 43 44 45 45 45 46 47 48 49 49 49 49 49 50 50 50 50 51 51
14 14 13 13 14 14 15 16 16 17 18 20 21 22 23 23 24 25 25 26 26 27 28 28 29 30 31 32 32 33 33 34 34 35 35 36 36 36 37 37 37 38 38 37 37 37 37 38 39 41 42 43 44 45 45 46 47 48 49 50 50 49 50 50 50 50 50 51 51
14 14 14 15 15 15 16 16 17 18 19 20 21 22 23 23 24 25 25 26 26 27 28 28 29 30 31 32 33 33 33 34 34 34 35 35 35 35 36 36 36 37 37 36 36 36 36 37 38 40 41 42 44 45 45 46 47 48 49 49 49 50 50 50 50 50 51 51 51
14 14 14 15 15 16 16 17 18 18 19 21 22 22 23 24 25 26 26 27 28 28 29 30 30 31 32 33 33 34 34 34 34 34 35 35 35 35 35 35 36 36 36 36 36 36 36 37 38 39 40 41 43 44 44 45 46 47 48 48 49 50 50 50 50 51 51 51 51
14 14 14 14 15 15 16 16 17 18 19 20 21 22 23 24 25 26 27 28 28 29 30 31 31 32 33 34 35 35 36 36 36 36 36 36 35 35 35 35 36 36 36 36 36 36 36 37 38 39 39 40 41 42 43 44 45 46 47 48 48 49 50 50 51 51 51 51 51
14 14 14 14 14 14 15 15 16 17 18 19 19 20 21 22 24 25 26 27 28 29 30 31 32 33 34 35 36 37 37 37 38 38 38 37 37 37 37 37 37 37 37 37 37 37 37 38 39 39 40 40 41 42 43 44 44 45 46 47 48 49 50 50 51 51 51 51 51
15 15 15 15 15 15 15 16 16 17 17 18 19 19 20 21 22 23 24 25 27 28 29 30 31 33 34 35 36 37 38 39 39 39 39 39 39 38 38 38 38 38 38 38 38 38 38 39 40 40 40 41 41 42 43 43 44 45 46 47 47 49 50 50 51 51 51 51 50
17 17 17 17 17 17 17 17 18 18 18 19 19 20 20 21 21 22 23 24 25 26 27 28 30 32 33 34 35 37 38 39 39 40 40 40 40 40 40 40 40 39 39 39 39 39 40 40 41 41 41 41 42 42 42 43 44 45 45 46 47 49 50 50 51 51 51 51 50
18 18 18 19 19 19 19 19 19 20 20 21 21 22 22 22 22 23 23 24 25 26 26 27 29 30 31 33 34 35 37 38 39 40 40 41 41 41 41 41 41 41 41 40 40 40 41 41 41 42 42 42 42 42 42 43 43 44 45 46 47 48 49 49 50 50 50 51 51
19 19 19 20 20 20 20 21 21 22 22 22 23 23 24 24 24 25 25 26 26 26 27 27 28 29 30 31 32 34 35 36 38 39 40 41 41 42 42 42 42 42 42 42 42 42 42 42 42 42 42 42 42 42 42 43 43 44 44 45 46 47 48 48 49 50 50 51 51
19 19 19 20 20 20 21 21 22 23 23 24 25 25 26 26 26 27 27 28 28 28 28 28 28 29 29 30 31 32 34 35 37 38 39 40 41 42 42 43 43 43 43 43 43 43 43 43 43 43 43 43 42 43 43 43 43 43 44 44 45 45 46 47 48 49 50 50 51
19 19 19 19 20 20 21 22 22 23 24 25 26 27 27 28 28 28 28 29 29 30 30 30 29 29 29 30 31 31 33 34 35 37 38 39 40 41 42 42 43 43 43 43 43 44 43 43 43 43 43 43 43 43 43 43 43 44 43 43 44 44 45 46 47 48 49 50 50
19 19 19 20 20 20 21 22 23 24 25 26 27 28 29 29 30 30 30 30 30 30 31 31 30 30 30 30 30 31 32 33 34 35 37 38 39 39 40 41 42 42 43 43 43 43 43 43 43 43 43 42 42 43 43 43 44 44 44 44 44 44 44 45 47 48 48 49 49
20 20 20 20 21 21 22 23 23 24 25 27 28 29 30 31 31 32 31 31 31 31 31 32 32 31 31 30 30 31 31 32 33 34 35 36 37 38 39 40 40 41 41 42 42 42 42 43 43 43 43 42 42 42 43 43 44 44 44 44 44 44 44 45 46 47 48 49 49
20 20 21 21 22 22 23 24 24 25 27 28 29 30 31 32 33 33 33 32 32 32 32 32 33 32 32 31 30 30 31 31 32 33 33 34 35 36 37 38 39 39 40 41 41 41 42 42 42 42 42 42 42 42 42 43 43 44 44 44 44 44 44 45 45 46 47 48 48
20 21 22 22 23 24 24 25 26 27 28 29 30 31 32 33 34 34 34 34 33 33 32 33 33 33 32 32 31 30 30 31 31 32 32 33 34 35 36 36 37 38 39 39 40 40 41 41 41 42 42 42 42 42 42 43 43 43 44 44 44 44 44 45 45 46 46 47 47
21 22 23 23 24 25 25 26 27 28 29 30 31 32 33 34 34 35 35 35 34 33 33 33 33 33 33 32 32 31 30 30 31 31 32 33 33 34 35 35 36 37 38 38 39 39 40 40 41 41 41 42 42 42 42 42 43 43 43 44 44 44 44 45 45 45 46 46 47
22 23 24 25 25 26 27 27 28 29 30 31 32 33 34 35 35 36 36 36 35 34 33 33 32 32 32 32 32 31 31 31 31 31 32 33 33 34 34 35 36 37 37 37 38 38 39 39 40 41 41 42 42 42 42 42 42 43 43 44 44 44 44 45 45 45 46 46 47
23 24 25 26 26 27 27 28 29 30 31 32 32 33 35 35 36 37 37 37 36 35 34 33 33 32 32 32 32 32 31 31 31 32 32 32 33 33 34 35 35 36 36 37 37 37 38 39 39 40 40 41 42 42 42 42 42 43 43 43 44 44 44 45 45 46 46 46 47
24 25 26 27 27 28 28 29 30 31 31 32 33 34 35 36 37 38 39 38 38 36 35 34 33 32 32 32 32 32 32 32 32 32 32 32 32 33 33 34 35 35 36 36 36 36 37 38 38 39 39 40 41 41 41 42 42 42 43 43 43 44 45 45 45 46 46 47 47
24 25 26 27 28 29 29 30 31 31 32 33 34 35 36 37 38 39 40 40 39 38 36 35 34 33 32 32 33 32 32 32 31 31 31 31 32 32 33 34 34 35 35 35 35 35 36 37 38 38 39 39 40 40 41 41 41 42 42 43 43 44 45 46 46 46 47 47 47
25 25 26 27 28 29 30 31 32 32 33 34 35 36 37 38 39 40 41 41 41 39 38 36 34 33 33 33 33 33 33 32 32 31 31 31 31 32 33 33 34 34 34 34 34 34 35 36 37 37 38 39 39 39 40 40 40 41 41 42 43 44 45 46 46 47 47 47 47
25 26 27 28 29 30 31 32 32 33 34 35 36 37 38 39 40 41 41 42 42 41 39 37 35 34 34 34 34 34 33 33 32 31 31 31 31 32 32 33 33 33 33 33 33 34 34 35 35 35 36 37 38 38 38 38 38 39 40 41 42 43 44 45 46 46 47 47 47
25 26 27 28 29 30 31 32 33 34 35 36 37 38 39 39 40 41 42 43 42 41 39 38 36 35 34 34 35 34 34 33 33 32 32 32 32 32 32 32 33 33 33 33 33 33 34 34 34 34 34 34 36 37 37 37 37 38 38 40 41 42 43 44 45 46 46 47 46
26 26 27 28 29 31 32 32 33 34 35 36 37 38 39 40 41 42 43 43 42 41 40 38 37 36 35 35 35 35 35 34 34 33 33 32 32 32 32 32 32 32 32 32 33 33 34 33 33 32 32 32 34 36 37 38 38 38 38 39 40 40 41 42 44 45 45 46 46
27 27 28 29 30 31 32 33 34 35 36 37 38 39 39 40 41 42 43 43 43 42 40 38 37 36 36 36 35 35 35 35 35 34 34 33 33 33 32 32 31 31 31 31 32 33 33 33 33 32 31 31 31 34 37 38 39 39 40 40 40 40 40 41 41 42 43 44 45
28 29 29 30 30 31 32 33 34 35 36 37 38 39 40 40 41 43 43 44 43 42 40 38 37 37 36 36 36 36 36 36 35 35 34 34 33 33 32 31 31 31 30 31 32 32 33 33 32 32 31 30 30 32 35 37 39 40 41 42 42 41 41 40 40 40 40 41 42
30 30 30 30 31 32 32 33 34 35 37 38 39 39 40 40 42 43 44 44 43 41 40 38 37 36 36 36 36 36 36 36 36 35 35 34 33 33 32 32 31 30 30 30 31 32 32 32 32 31 30 30 29 30 32 35 38 40 42 43 43 43 43 42 41 39 39 39 39
31 31 32 31 32 32 33 33 34 36 37 39 40 40 40 40 41 42 43 43 43 42 40 39 37 36 36 36 36 37 37 37 36 36 35 34 34 33 33 32 31 30 30 30 31 31 31 31 31 31 30 29 29 29 31 33 37 40 42 44 44 44 44 44 42 41 39 37 37
33 33 33 32 32 32 33 34 35 36 38 40 41 41 41 41 41 42 43 43 43 42 41 39 38 37 36 36 36 37 37 37 37 36 35 35 34 34 34 33 31 30 29 30 30 31 31 31 30 29 29 28 29 29 31 33 36 39 42 43 45 45 45 45 44 43 40 38 37
34 34 33 33 33 33 33 34 35 37 39 41 42 42 42 41 41 42 42 42 42 42 41 40 38 37 37 36 36 37 37 37 37 37 36 35 35 35 34 33 32 30 29 29 30 30 30 30 29 29 28 28 28 29 31 32 35 38 40 43 44 45 45 45 45 44 43 40 38
34 34 34 34 33 33 34 34 36 38 40 42 43 43 42 41 41 42 42 42 42 42 41 40 38 37 37 37 37 37 37 37 37 37 37 36 36 36 35 34 32 30 29 28 29 29 29 29 29 28 28 28 28 30 31 32 34 36 39 41 43 44 45 45 45 44 44 43 41
35 35 34 34 33 33 34 35 37 39 41 43 44 44 43 42 42 42 41 41 41 41 40 39 38 37 37 37 37 37 37 37 37 38 38 37 37 36 36 35 33 31 29 28 28 28 28 28 28 27 27 28 29 30 31 32 33 35 37 40 42 43 43 44 44 44 44 44 42
35 35 34 34 33 33 34 35 38 40 43 44 45 44 43 42 42 41 41 41 40 40 40 39 38 38 37 37 37 38 38 37 37 37 38 38 37 36 36 35 34 32 30 28 28 28 28 28 27 27 27 28 29 30 31 32 33 34 36 38 40 41 42 42 43 43 44 44 43
35 34 34 33 33 33 34 36 39 41 44 45 45 44 42 42 41 41 41 40 40 40 39 39 38 38 37 37 38 38 38 38 37 37 37 38 37 36 36 35 34 33 31 29 28 27 27 27 26 26 26 27 28 29 31 32 33 34 36 37 38 39 40 41 41 42 42 43 42
34 34 34 33 33 33 35 37 40 43 44 45 44 43 42 42 42 41 41 40 40 39 39 38 38 38 38 38 38 38 38 38 38 37 37 37 37 36 36 36 35 34 32 30 29 28 27 27 26 25 25 25 27 29 30 32 34 35 36 37 38 38 39 39 40 40 41 41 41
Wind_Direction
288 287 286 285 285 285 285 285 286 286 286 286 286 286 286 286 286 287 287 287 287 287 288 289 289 289 289 288 287 287 286 286 285 284 284 283 282 281 281 280 280 279 278 277 276 274 272 271 269 268 267 267 267 266 265 264 263 262 262 261 261 261 260 259 259 259 258 256 255
291 289 288 286 286 285 285 285 286 286 287 287 288 288 288 288 288 288 288 288 288 288 289 289 289 288 288 288 288 287 286 286 285 284 283 282 282 281 281 280 279 278 277 277 275 273 272 270 269 268 267 267 266 265 264 264 263 262 261 261 261 261 260 259 260 259 259 257 256
296 293 290 288 286 286 286 286 287 288 288 289 290 290 289 289 289 289 289 289 289 289 288 288 288 288 288 288 288 287 285 285 284 283 283 282 281 280 280 279 278 278 277 276 274 273 272 270 269 267 267 267 266 265 265 264 263 262 261 261 261 261 260 259 259 259 258 256 255
302 298 294 291 290 288 288 288 290 290 291 291 291 290 290 289 289 289 289 290 289 289 288 289 289 289 289 288 286 285 284 283 282 282 281 281 280 279 279 278 277 277 276 275 274 273 272 270 268 267 266 266 266 266 265 264 263 262 262 262 261 260 259 259 259 258 257 256 255
315 310 306 302 299 296 294 294 294 294 295 294 293 291 291 291 291 291 291 291 291 291 291 291 291 289 287 286 284 283 282 281 280 280 280 279 279 278 278 277 276 276 275 275 274 273 271 270 268 266 266 266 266 265 265 264 263 262 262 262 261 260 259 259 258 258 257 256 255
334 331 327 321 316 311 307 304 302 301 301 299 297 295 296 297 297 296 296 296 296 296 294 292 290 288 286 284 283 282 281 280 279 279 279 279 278 277 277 276 275 275 275 274 273 272 271 269 267 266 265 265 265 265 265 264 262 261 261 260 259 259 258 257 257 257 256 256 255
343 340 336 333 328 324 320 316 313 310 308 305 303 303 305 306 305 304 303 302 300 298 295 293 290 288 286 284 283 282 281 281 280 279 279 278 278 277 276 276 275 274 274 273 272 271 270 268 266 265 264 264 263 263 263 262 261 260 259 259 259 258 257 257 257 257 256 256 256
342 340 337 335 332 328 325 322 319 315 312 310 309 310 311 311 309 307 305 303 301 299 297 294 292 289 288 286 285 284 283 283 282 281 280 279 278 278 277 276 275 274 273 272 271 270 269 267 266 265 264 263 263 262 262 261 260 259 259 259 259 258 257 257 257 256 256 256 256
337 336 335 333 331 329 327 324 321 318 315 314 313 313 312 311 309 307 306 304 303 301 298 295 293 291 290 288 287 286 286 285 284 283 282 281 280 279 278 277 276 275 274 272 271 270 269 267 266 265 264 264 263 262 262 261 260 260 259 259 258 258 257 257 256 256 256 256 255
333 332 331 330 330 328 326 324 321 319 317 314 314 313 312 310 308 307 306 304 303 300 298 295 294 293 291 290 289 288 287 287 286 285 284 283 282 281 280 279 278 276 275 274 272 271 269 268 266 266 265 264 263 263 262 261 261 260 259 259 258 258 257 257 256 256 256 255 255
331 329 328 327 327 325 324 322 320 319 317 314 313 312 311 309 307 306 305 303 301 299 297 296 295 293 292 291 290 289 288 287 287 286 285 285 284 283 282 281 280 278 277 276 274 272 270 268 267 266 266 265 263 262 262 261 260 260 259 259 258 257 257 257 256 256 255 255 254
330 329 328 326 324 323 321 320 318 317 315 313 312 311 310 308 307 305 304 301 299 298 297 296 295 293 292 291 290 289 288 288 287 286 286 285 285 284 283 282 281 279 278 277 275 273 271 270 269 268 267 266 264 262 261 260 260 259 259 259 258 257 256 256 256 255 255 255 254
331 330 328 327 325 323 322 320 318 316 314 313 311 310 309 307 306 304 302 300 299 298 297 296 295 293 292 291 290 289 288 288 287 287 286 286 285 285 284 283 281 280 279 278 276 274 273 272 272 271 269 268 266 264 262 261 260 260 259 258 257 256 256 255 255 255 255 254 253
331 331 330 329 328 327 326 325 323 321 318 316 315 313 311 309 307 305 303 300 299 298 297 296 294 292 291 290 290 289 288 288 287 287 286 286 285 285 284 283 282 281 280 278 277 275 274 274 274 273 272 270 268 267 265 264 263 261 260 259 258 257 256 256 255 255 254 253 253
332 332 333 333 333 334 334 334 332 331 329 327 324 322 319 316 313 309 306 304 301 300 298 296 294 292 291 290 289 288 288 287 286 286 285 285 284 284 283 283 282 281 280 279 278 277 276 276 276 275 274 272 271 269 268 266 265 264 263 261 260 259 258 257 256 255 254 254 253
333 333 334 336 338 339 340 341 341 341 340 338 337 335 332 328 324 319 315 311 308 304 301 298 296 294 292 290 289 287 286 285 285 284 283 283 283 283 283 283 282 281 281 280 279 278 277 277 277 276 275 274 272 271 269 268 267 266 265 264 263 261 260 259 257 256 255 255 254
330 332 333 336 338 340 342 344 345 346 346 346 345 345 343 339 335 330 325 321 316 311 307 303 300 297 294 291 289 287 285 284 283 282 282 281 282 282 282 282 282 281 281 280 279 279 278 278 277 276 275 274 273 271 270 269 268 267 267 266 265 263 262 260 258 257 256 256 255
327 328 330 332 335 338 340 342 344 346 348 349 349 349 348 346 342 339 334 329 324 319 314 309 304 300 296 293 290 288 285 284 282 282 281 281 281 281 281 281 281 280 280 279 279 279 278 278 277 276 275 275 274 272 271 269 268 268 268 267 267 265 264 262 260 258 257 256 256
325 326 327 329 331 334 336 339 341 344 346 347 348 349 349 348 346 343 340 335 330 325 319 314 309 304 300 296 292 289 287 285 283 282 282 281 281 280 280 280 280 279 279 279 278 278 278 277 276 276 275 274 273 272 271 269 268 267 267 267 267 266 265 263 261 260 258 258 257
325 326 327 328 330 331 334 336 338 340 343 344 346 347 347 347 347 345 343 339 335 329 324 319 314 309 305 300 296 292 289 286 285 284 283 282 281 280 279 279 279 279 278 278 278 278 277 276 275 275 274 273 272 272 271 269 268 267 267 266 266 266 265 264 262 261 260 259 258
325 326 327 328 329 331 332 334 336 338 340 341 343 344 345 345 346 345 344 341 338 333 328 322 318 313 309 304 299 295 291 288 286 284 283 282 281 280 279 279 279 278 278 277 277 276 276 275 275 274 273 273 272 271 270 269 268 267 267 266 266 266 265 264 262 261 260 259 258
324 326 327 328 329 330 331 333 335 337 338 339 340 341 342 343 344 344 343 342 339 335 330 325 320 316 311 307 302 298 294 290 287 285 283 282 281 280 280 279 278 278 277 276 276 276 275 275 274 273 273 272 271 270 270 269 268 267 266 266 265 265 264 263 262 261 260 259 258
323 325 326 327 328 329 331 332 334 335 337 338 338 339 339 340 341 342 342 341 339 336 332 328 323 318 314 310 306 301 297 293 289 286 284 283 282 281 280 279 278 277 276 276 276 276 275 275 274 273 272 271 270 270 269 268 267 267 266 265 265 264 263 263 262 261 259 259 258
322 324 326 327 328 329 330 332 333 334 336 336 337 337 337 338 339 339 340 340 339 336 333 329 325 320 316 312 308 304 300 296 292 289 287 285 283 282 280 279 278 277 276 276 276 275 275 274 274 273 272 271 270 270 269 268 267 266 265 264 264 263 262 262 261 260 259 258 257
321 323 325 326 327 329 330 331 333 334 335 335 335 335 335 336 336 337 337 337 337 335 333 330 326 322 318 314 310 307 303 299 296 293 290 287 285 283 281 279 278 277 277 277 276 276 275 274 274 273 272 271 270 269 268 267 266 265 265 264 263 262 262 261 260 259 258 258 257
320 323 324 326 327 328 329 331 332 333 334 334 334 334 334 334 334 334 335 335 335 334 332 329 326 322 318 315 312 309 306 303 300 297 293 290 287 284 282 280 279 278 278 277 277 276 275 274 273 273 272 271 269 268 266 266 265 264 264 263 262 261 260 260 259 258 258 257 257
319 322 324 325 326 328 329 330 331 332 333 333 333 332 332 332 332 333 333 333 333 332 331 328 325 322 318 315 313 311 309 307 304 300 297 293 290 286 283 281 280 279 279 278 278 277 275 273 272 271 271 270 269 267 265 264 264 263 262 261 261 260 259 259 258 258 257 257 256
317 320 322 324 326 327 328 329 330 331 331 331 331 331 331 331 331 331 331 331 331 330 329 327 324 321 318 315 313 312 311 309 307 303 300 296 292 289 286 283 282 281 280 280 279 278 275 272 270 267 266 267 268 268 266 265 264 262 261 260 259 259 258 258 258 257 256 256 256
314 318 320 322 324 326 327 328 329 329 330 330 330 329 329 329 329 330 330 330 329 328 327 325 323 320 317 315 314 313 311 310 308 305 302 299 295 292 289 286 284 283 282 281 280 278 276 272 269 264 261 260 263 265 266 265 264 262 261 259 258 258 257 257 256 256 255 255 255
311 314 317 320 322 324 326 327 327 328 328 328 328 328 328 328 328 329 329 328 327 326 325 323 321 318 316 314 314 312 311 310 308 306 303 301 298 295 292 289 287 285 283 282 280 278 276 273 268 264 258 253 254 258 261 263 264 263 261 260 259 258 257 256 256 255 254 254 253
307 309 312 315 318 321 323 325 325 326 326 326 326 326 326 326 327 327 327 327 326 325 324 322 319 317 315 315 313 311 310 310 308 306 304 302 300 298 295 292 289 287 285 282 280 278 276 273 268 264 259 254 250 251 255 259 261 262 262 262 261 260 259 258 256 255 255 253 252
303 305 307 310 314 317 320 322 323 323 324 323 324 324 324 325 326 326 326 325 324 323 321 320 317 316 315 314 313 311 310 309 307 306 304 303 301 299 297 294 291 288 285 283 280 278 275 272 268 264 260 255 250 248 250 253 257 260 262 262 262 261 261 260 258 257 256 254 253
301 302 303 305 308 312 316 318 319 320 320 321 321 322 323 324 325 325 325 324 323 321 319 317 315 314 313 313 312 310 309 308 307 305 304 303 302 300 298 295 292 289 287 284 281 278 275 271 268 264 260 256 252 248 247 249 253 256 259 261 261 262 262 261 260 260 258 257 255
300 300 300 301 303 307 311 313 315 316 317 317 318 320 321 322 323 324 324 323 321 319 317 316 314 313 312 312 311 310 309 308 307 305 304 303 301 299 297 295 293 291 289 286 283 279 276 272 268 263 259 256 252 249 247 247 249 252 255 257 259 260 261 261 261 261 261 260 258
299 299 298 298 299 302 305 308 310 311 312 314 316 318 320 321 322 322 322 322 320 318 316 315 314 312 312 311 311 310 309 308 307 305 303 302 300 298 297 296 295 294 291 287 284 281 277 273 268 264 259 256 252 249 247 246 246 249 252 255 257 257 258 259 260 261 261 261 260
299 298 297 296 297 298 301 303 304 306 308 311 314 316 318 319 320 321 321 320 318 316 315 314 313 312 312 311 311 310 309 308 306 304 302 300 298 297 296 297 297 296 293 289 285 281 277 274 269 264 260 255 252 249 247 245 245 246 249 252 254 256 256 257 258 260 261 261 261
299 297 296 295 295 296 297 298 299 301 304 308 312 315 317 318 319 319 319 318 316 315 313 313 312 312 312 312 311 310 309 307 305 303 301 299 297 296 296 297 297 297 294 291 286 282 278 273 269 265 260 255 252 249 247 245 244 245 247 250 252 254 255 256 257 258 259 260 261
298 297 295 294 294 294 294 295 296 298 302 307 311 314 316 317 317 317 317 316 314 313 312 312 312 312 312 311 310 309 308 306 304 302 299 298 296 295 296 296 297 297 295 292 288 283 279 274 269 264 259 254 252 250 248 245 243 243 245 248 250 253 254 255 255 256 258 259 260
297 296 295 294 293 292 292 292 293 297 301 306 310 313 315 315 315 315 315 314 312 312 311 311 311 312 312 311 310 308 307 306 304 301 299 297 296 296 295 295 295 296 296 293 290 285 281 276 270 264 258 253 251 250 248 246 244 243 244 246 249 251 253 254 254 255 256 258 258
296 296 295 294 293 291 290 290 292 296 301 306 310 312 313 313 313 313 313 312 311 311 311 311 311 311 311 310 309 308 306 305 304 302 299 297 296 295 294 293 294 295 295 294 291 288 284 279 273 266 259 253 250 248 247 246 245 244 244 245 248 250 252 253 253 254 255 256 257
296 296 296 295 293 291 290 290 293 297 302 306 309 311 312 311 311 311 311 311 311 310 310 310 310 310 310 309 308 307 306 305 304 302 300 298 296 294 293 292 293 294 295 294 292 289 285 281 276 269 262 254 249 247 245 245 245 244 244 244 246 249 251 252 253 253 254 255 256
Height
1481 1481 1480 1479 1478 1477 1476 1476 1475 1475 1474 1473 1473 1472 1472 1471 1470 1470 1469 1469 1468 1467 1467 1466 1466 1466 1465 1465 1465 1464 1464 1463 1463 1463 1462 1462 1461 1461 1461 1461 1461 1461 1460 1460 1460 1460 1460 1460 1460 1459 1458 1458 1458 1458 1458 1458 1458 1458 1458 1458 1458 1458 1459 1459 1459 1459 1459 1460 1460
1480 1479 1478 1478 1477 1476 1475 1474 1474 1473 1472 1472 1471 1471 1470 1470 1468 1467 1467 1466 1466 1465 1465 1464 1464 1464 1463 1462 1462 1462 1461 1461 1461 1461 1460 1460 1459 1459 1459 1458 1458 1458 1458 1458 1458 1458 1457 1457 1457 1456 1456 1455 1455 1455 1455 1455 1455 1456 1455 1455 1455 1456 1456 1456 1456 1456 1457 1457 1458
1478 1477 1477 1476 1475 1475 1474 1473 1472 1471 1471 1470 1470 1469 1468 1467 1466 1466 1465 1464 1464 1463 1463 1462 1462 1461 1461 1461 1460 1460 1459 1459 1459 1458 1458 1457 1457 1456 1456 1456 1456 1456 1455 1455 1455 1455 1455 1455 1454 1454 1453 1452 1452 1452 1451 1452 1452 1453 1452 1452 1453 1453 1453 1453 1453 1454 1454 1455 1455
1476 1475 1475 1474 1474 1473 1472 1471 1471 1470 1469 1468 1468 1467 1466 1466 1465 1464 1463 1462 1462 1461 1461 1461 1460 1460 1459 1459 1458 1457 1457 1457 1456 1456 1455 1455 1454 1454 1454 1454 1453 1453 1453 1453 1453 1452 1452 1452 1452 1451 1450 1450 1449 1449 1449 1449 1450 1450 1450 1450 1450 1451 1450 1450 1450 1451 1451 1451 1452
1474 1474 1473 1472 1472 1471 1471 1470 1469 1468 1467 1467 1466 1465 1464 1464 1463 1462 1461 1461 1460 1459 1459 1459 1459 1458 1457 1457 1456 1456 1455 1455 1454 1454 1453 1452 1452 1452 1451 1451 1451 1451 1450 1450 1450 1450 1450 1450 1449 1448 1447 1447 1446 1446 1446 1447 1447 1447 1447 1447 1447 1447 1447 1447 1447 1448 1448 1449 1449
1473 1472 1471 1471 1470 1469 1469 1468 1467 1466 1466 1465 1465 1463 1462 1462 1461 1461 1460 1459 1458 1458 1458 1458 1457 1456 1456 1455 1454 1453 1453 1452 1452 1451 1451 1450 1450 1449 1449 1449 1448 1448 1448 1448 1447 1447 1447 1447 1446 1446 1445 1444 1444 1443 1444 1444 1445 1444 1444 1444 1444 1444 1444 1445 1445 1445 1446 1446 1446
1471 1471 1470 1469 1469 1468 1467 1466 1466 1465 1465 1464 1463 1462 1461 1461 1460 1459 1458 1458 1457 1457 1456 1456 1455 1455 1454 1453 1452 1451 1451 1450 1449 1449 1448 1448 1447 1447 1446 1446 1446 1445 1445 1445 1445 1445 1445 1444 1444 1443 1442 1441 1441 1441 1441 1441 1441 1441 1441 1441 1441 1441 1441 1441 1441 1442 1442 1442 1443
1470 1470 1469 1468 1467 1466 1466 1465 1465 1464 1463 1462 1461 1461 1460 1459 1459 1458 1457 1457 1456 1455 1455 1454 1453 1452 1452 1451 1450 1449 1449 1448 1447 1446 1446 1446 1445 1444 1444 1443 1443 1443 1442 1442 1442 1442 1441 1441 1441 1440 1439 1439 1438 1437 1437 1438 1438 1438 1438 1438 1438 1438 1438 1438 1439 1439 1439 1439 1440
1469 1468 1467 1467 1466 1465 1465 1464 1463 1462 1462 1461 1460 1459 1459 1458 1457 1457 1456 1455 1455 1454 1453 1452 1451 1451 1450 1449 1448 1447 1446 1446 1445 1444 1444 1443 1442 1442 1441 1441 1441 1440 1440 1439 1439 1439 1439 1438 1437 1436 1436 1436 1435 1434 1434 1435 1435 1435 1435 1435 1435 1435 1435 1435 1436 1436 1436 1436 1437
1468 1467 1466 1465 1465 1464 1463 1462 1461 1461 1460 1459 1459 1458 1457 1456 1456 1455 1454 1454 1453 1452 1451 1451 1450 1449 1448 1447 1446 1445 1444 1443 1443 1442 1441 1441 1440 1439 1439 1438 1438 1437 1437 1437 1436 1436 1436 1436 1435 1433 1433 1432 1432 1431 1431 1432 1432 1432 1432 1432 1432 1432 1432 1432 1432 1433 1433 1433 1434
1467 1466 1465 1464 1463 1462 1461 1461 1460 1459 1458 1458 1457 1456 1456 1455 1454 1453 1452 1451 1451 1450 1449 1448 1448 1447 1446 1445 1444 1443 1442 1441 1441 1440 1439 1438 1438 1437 1436 1436 1435 1435 1434 1434 1434 1434 1433 1432 1431 1431 1430 1430 1429 1429 1429 1429 1429 1429 1429 1429 1429 1430 1429 1429 1429 1430 1430 1430 1431
1466 1465 1464 1463 1462 1461 1460 1459 1458 1458 1457 1456 1455 1454 1453 1452 1452 1451 1450 1449 1448 1447 1446 1446 1445 1444 1443 1442 1441 1441 1440 1439 1438 1437 1436 1436 1435 1434 1434 1433 1433 1432 1432 1431 1431 1431 1430 1429 1429 1428 1427 1427 1427 1427 1426 1426 1426 1426 1426 1426 1426 1426 1426 1426 1426 1426 1427 1427 1428
1464 1463 1462 1461 1461 1460 1459 1458 1457 1456 1455 1454 1453 1452 1451 1450 1450 1449 1448 1446 1446 1445 1444 1443 1443 1441 1441 1440 1439 1438 1437 1436 1436 1435 1434 1433 1432 1432 1431 1431 1430 1430 1429 1429 1429 1428 1427 1426 1426 1425 1425 1425 1425 1424 1424 1424 1424 1423 1423 1423 1423 1423 1423 1423 1424 1424 1425 1425 1425
1463 1462 1461 1460 1459 1458 1457 1456 1455 1454 1453 1452 1451 1451 1449 1448 1447 1446 1445 1444 1443 1442 1441 1441 1440 1439 1438 1437 1436 1436 1435 1434 1433 1432 1431 1430 1429 1429 1428 1427 1427 1427 1426 1426 1426 1425 1424 1423 1423 1422 1422 1422 1422 1422 1421 1421 1421 1421 1421 1421 1420 1420 1420 1421 1421 1422 1422 1422 1422
1462 1461 1460 1459 1458 1457 1456 1455 1454 1453 1451 1451 1450 1449 1447 1446 1445 1444 1443 1442 1441 1440 1439 1438 1437 1436 1435 1434 1433 1432 1432 1431 1430 1429 1428 1427 1426 1426 1425 1424 1424 1424 1423 1423 1423 1422 1421 1421 1420 1420 1420 1419 1419 1419 1419 1419 1418 1418 1418 1417 1417 1418 1418 1418 1419 1419 1420 1419 1420
1461 1460 1459 1457 1456 1456 1454 1453 1452 1451 1450 1449 1448 1446 1446 1444 1443 1442 1441 1440 1438 1437 1436 1435 1434 1433 1432 1431 1431 1430 1429 1428 1427 1426 1425 1424 1423 1422 1422 1421 1421 1421 1420 1420 1420 1419 1418 1418 1417 1417 1417 1416 1416 1416 1416 1416 1415 1415 1415 1415 1415 1415 1416 1416 1416 1416 1416 1416 1417
1460 1459 1458 1456 1456 1454 1453 1452 1451 1450 1449 1447 1446 1445 1444 1442 1441 1440 1439 1437 1436 1435 1434 1432 1431 1431 1429 1428 1427 1426 1426 1424 1423 1422 1421 1421 1420 1419 1419 1418 1417 1417 1417 1417 1416 1416 1415 1415 1415 1414 1414 1414 1414 1413 1413 1413 1413 1412 1412 1412 1412 1412 1413 1413 1413 1414 1414 1414 1414
1459 1458 1457 1456 1455 1453 1452 1451 1450 1449 1447 1446 1445 1444 1442 1441 1440 1438 1437 1436 1434 1432 1431 1430 1429 1428 1426 1425 1424 1423 1422 1421 1420 1419 1418 1417 1416 1416 1415 1415 1414 1414 1414 1413 1413 1412 1412 1412 1411 1411 1411 1411 1411 1410 1410 1410 1410 1410 1409 1409 1410 1410 1410 1410 1411 1411 1411 1411 1411
1457 1456 1456 1454 1453 1452 1451 1450 1448 1447 1446 1445 1443 1442 1441 1439 1438 1436 1435 1433 1432 1430 1429 1427 1426 1425 1424 1422 1421 1420 1419 1418 1417 1416 1415 1414 1413 1413 1412 1411 1411 1411 1410 1410 1409 1409 1409 1409 1408 1408 1408 1408 1407 1407 1407 1407 1407 1407 1407 1407 1407 1407 1407 1407 1408 1408 1408 1408 1409
1456 1455 1454 1453 1452 1451 1449 1448 1447 1445 1444 1443 1441 1440 1439 1437 1436 1434 1433 1431 1430 1428 1426 1425 1423 1422 1421 1420 1418 1417 1416 1415 1414 1412 1411 1411 1410 1409 1409 1408 1408 1407 1407 1406 1406 1406 1406 1405 1405 1405 1405 1405 1404 1404 1404 1404 1404 1404 1404 1404 1404 1404 1404 1404 1405 1405 1405 1406 1406
1455 1453 1452 1451 1450 1449 1447 1446 1445 1444 1442 1441 1440 1438 1437 1436 1434 1432 1431 1429 1428 1426 1424 1422 1421 1419 1418 1417 1416 1414 1413 1412 1411 1409 1408 1407 1407 1406 1405 1405 1405 1404 1403 1403 1402 1402 1402 1402 1402 1402 1401 1401 1401 1401 1401 1401 1401 1401 1401 1401 1401 1401 1401 1401 1402 1402 1402 1403 1403
1453 1452 1451 1449 1448 1447 1446 1444 1443 1441 1440 1439 1437 1436 1435 1433 1432 1431 1429 1427 1426 1424 1422 1420 1418 1417 1415 1414 1412 1411 1410 1409 1407 1406 1405 1404 1403 1402 1402 1402 1401 1401 1400 1400 1399 1399 1399 1399 1398 1398 1398 1398 1398 1398 1398 1398 1398 1398 1398 1398 1398 1398 1398 1399 1399 1399 1399 1400 1400
1451 1450 1449 1447 1446 1445 1444 1442 1441 1440 1438 1437 1435 1434 1432 1431 1430 1428 1426 1425 1423 1421 1420 1418 1416 1414 1413 1411 1410 1408 1407 1406 1404 1403 1402 1401 1400 1399 1399 1398 1398 1397 1396 1396 1396 1396 1396 1395 1395 1395 1395 1395 1395 1395 1395 1395 1395 1395 1395 1395 1395 1395 1396 1396 1396 1396 1396 1397 1397
1449 1448 1447 1446 1444 1443 1441 1440 1439 1437 1436 1435 1433 1432 1430 1429 1427 1426 1424 1422 1421 1419 1417 1416 1414 1412 1410 1409 1407 1406 1404 1402 1401 1400 1399 1398 1397 1396 1396 1395 1394 1393 1393 1392 1392 1392 1392 1392 1392 1392 1392 1391 1391 1391 1391 1392 1392 1392 1392 1392 1392 1392 1392 1392 1393 1393 1393 1394 1394
1447 1446 1445 1443 1442 1441 1439 1438 1436 1435 1434 1432 1431 1429 1428 1426 1425 1423 1421 1420 1418 1416 1415 1413 1411 1409 1407 1406 1404 1403 1401 1400 1398 1397 1396 1395 1394 1393 1392 1391 1391 1390 1389 1389 1389 1389 1389 1389 1389 1388 1388 1388 1388 1388 1388 1388 1389 1389 1389 1389 1389 1389 1389 1389 1390 1390 1390 1391 1391
1445 1444 1442 1441 1440 1438 1437 1436 1434 1433 1431 1430 1428 1427 1425 1424 1422 1420 1419 1417 1415 1414 1412 1410 1408 1406 1405 1403 1401 1400 1398 1397 1396 1394 1393 1392 1391 1390 1389 1388 1387 1386 1386 1386 1386 1386 1386 1386 1386 1385 1385 1385 1385 1385 1385 1385 1385 1386 1386 1386 1386 1386 1386 1386 1386 1386 1387 1388 1388
1443 1441 1440 1439 1437 1436 1435 1433 1432 1430 1429 1427 1426 1424 1423 1421 1420 1418 1416 1414 1412 1411 1409 1407 1406 1404 1402 1400 1398 1397 1395 1394 1393 1391 1390 1389 1388 1387 1386 1385 1384 1383 1382 1382 1383 1383 1383 1383 1383 1382 1381 1381 1381 1381 1381 1381 1382 1382 1383 1383 1383 1383 1383 1383 1383 1383 1384 1385 1385
1440 1439 1438 1436 1435 1433 1432 1431 1429 1428 1426 1425 1423 1421 1420 1418 1417 1415 1413 1411 1410 1408 1406 1404 1403 1401 1399 1397 1396 1394 1392 1391 1390 1389 1387 1386 1385 1384 1382 1381 1381 1380 1379 1380 1380 1380 1380 1380 1380 1380 1379 1378 1377 1377 1378 1378 1379 1379 1379 1379 1379 1379 1379 1380 1380 1381 1381 1382 1382
1438 1437 1435 1434 1432 1431 1430 1428 1427 1425 1424 1422 1421 1419 1417 1416 1414 1412 1411 1409 1407 1405 1403 1401 1400 1398 1396 1394 1393 1391 1390 1388 1387 1386 1384 1383 1381 1381 1379 1379 1378 1377 1377 1377 1376 1376 1377 1377 1377 1377 1378 1377 1376 1374 1374 1375 1375 1376 1376 1376 1376 1376 1376 1376 1377 1377 1378 1379 1380
1436 1434 1433 1431 1430 1428 1427 1426 1424 1423 1421 1420 1418 1416 1415 1413 1411 1410 1408 1406 1404 1402 1401 1399 1397 1395 1393 1392 1390 1388 1387 1386 1384 1383 1381 1380 1379 1377 1376 1376 1375 1374 1374 1374 1374 1373 1373 1374 1374 1374 1375 1376 1375 1373 1371 1371 1371 1372 1372 1372 1372 1372 1372 1373 1374 1375 1375 1376 1377
1434 1432 1430 1429 1427 1426 1424 1423 1422 1420 1419 1417 1416 1414 1412 1411 1409 1407 1405 1403 1401 1399 1397 1396 1394 1392 1391 1389 1387 1386 1384 1383 1381 1380 1379 1377 1376 1375 1374 1373 1372 1371 1371 1371 1371 1371 1371 1371 1371 1371 1372 1373 1373 1372 1371 1369 1369 1369 1368 1368 1368 1368 1369 1370 1371 1371 1372 1373 1374
1431 1430 1428 1426 1425 1423 1422 1421 1419 1418 1416 1415 1413 1412 1410 1408 1406 1405 1403 1401 1398 1396 1394 1393 1391 1389 1387 1386 1385 1383 1381 1380 1379 1377 1376 1375 1373 1372 1371 1370 1369 1369 1368 1368 1368 1368 1368 1368 1368 1368 1369 1370 1370 1371 1370 1368 1367 1366 1365 1365 1365 1365 1366 1367 1367 1368 1369 1371 1371
1429 1427 1426 1424 1422 1420 1419 1418 1416 1415 1414 1412 1411 1410 1408 1406 1404 1402 1400 1398 1396 1394 1392 1390 1388 1386 1385 1383 1382 1380 1379 1377 1376 1374 1373 1372 1371 1369 1368 1367 1366 1366 1366 1366 1365 1365 1365 1365 1365 1366 1366 1367 1367 1367 1367 1367 1366 1364 1363 1362 1362 1362 1363 1363 1364 1366 1366 1368 1369
1427 1425 1423 1421 1420 1418 1416 1415 1414 1412 1411 1410 1408 1407 1406 1404 1401 1400 1398 1396 1394 1391 1389 1387 1386 1384 1382 1381 1379 1377 1376 1374 1373 1372 1371 1369 1368 1367 1366 1364 1364 1363 1363 1363 1362 1362 1362 1362 1362 1363 1363 1364 1364 1365 1365 1365 1363 1362 1361 1360 1359 1359 1360 1361 1361 1362 1364 1365 1366
1425 1423 1421 1419 1417 1416 1414 1412 1411 1410 1408 1407 1406 1404 1403 1401 1399 1397 1395 1393 1391 1389 1386 1385 1383 1381 1380 1378 1376 1375 1373 1371 1370 1369 1368 1366 1366 1364 1363 1362 1361 1361 1361 1361 1360 1360 1359 1360 1360 1360 1361 1361 1361 1361 1361 1361 1361 1360 1359 1358 1357 1357 1357 1358 1359 1360 1361 1362 1364
1422 1421 1418 1416 1415 1413 1411 1410 1408 1407 1406 1405 1403 1401 1400 1398 1396 1395 1393 1391 1388 1386 1384 1382 1380 1379 1377 1375 1374 1372 1371 1369 1367 1366 1365 1364 1363 1361 1360 1359 1359 1358 1358 1358 1357 1357 1357 1357 1357 1357 1358 1358 1358 1358 1358 1358 1358 1357 1357 1356 1355 1355 1355 1356 1356 1357 1358 1360 1361
1420 1418 1416 1414 1412 1410 1409 1407 1406 1405 1403 1402 1401 1399 1397 1395 1393 1392 1390 1388 1386 1383 1381 1380 1378 1376 1375 1373 1371 1370 1368 1366 1365 1363 1362 1361 1360 1359 1357 1356 1356 1356 1356 1356 1355 1355 1355 1355 1355 1355 1356 1356 1355 1355 1355 1355 1355 1355 1354 1354 1353 1353 1353 1354 1354 1355 1356 1356 1358
1417 1416 1413 1411 1409 1407 1406 1405 1404 1402 1401 1399 1398 1396 1394 1392 1391 1389 1387 1386 1383 1381 1379 1377 1375 1374 1372 1371 1369 1367 1365 1364 1362 1361 1359 1358 1357 1356 1355 1354 1353 1353 1353 1353 1353 1352 1352 1352 1352 1353 1353 1353 1352 1352 1352 1352 1352 1352 1352 1351 1351 1351 1351 1352 1352 1352 1353 1354 1355
1414 1412 1411 1409 1407 1405 1404 1402 1401 1400 1398 1397 1395 1393 1391 1390 1388 1386 1385 1383 1381 1379 1376 1375 1373 1371 1370 1368 1366 1364 1362 1361 1360 1358 1357 1355 1354 1354 1353 1351 1351 1350 1350 1350 1350 1350 1349 1349 1350 1350 1350 1350 1350 1350 1349 1349 1349 1349 1349 1349 1349 1349 1349 1349 1350 1350 1350 1351 1352
1411 1410 1408 1406 1404 1403 1401 1400 1399 1398 1396 1395 1392 1391 1389 1387 1385 1383 1382 1381 1379 1376 1374 1372 1370 1369 1367 1366 1364 1361 1360 1358 1357 1356 1354 1353 1352 1351 1350 1349 1348 1347 1347 1348 1347 1347 1347 1347 1347 1347 1348 1348 1347 1347 1347 1347 1347 1347 1347 1347 1347 1347 1347 1347 1347 1348 1348 1349 1350
1408 1406 1405 1403 1402 1400 1399 1398 1396 1395 1394 1392 1390 1388 1386 1384 1382 1381 1379 1378 1376 1374 1372 1370 1368 1366 1365 1363 1361 1359 1357 1355 1354 1352 1351 1350 1349 1348 1347 1346 1346 1345 1345 1345 1345 1345 1344 1344 1344 1345 1345 1345 1345 1345 1345 1345 1344 1344 1344 1345 1345 1345 1345 1345 1345 1346 1346 1346 1348